Time,TemperatureF,DewpointF,PressureIn,WindDirection,WindDirectionDegrees,WindSpeedMPH,WindSpeedGustMPH,Humidity,HourlyPrecipIn,Conditions,Clouds,dailyrainin,SoftwareType,DateUTC
2013-01-12 00:06:00,36.5,34.4,30.08,WNW,292,0.0,-999.0,92,-99.99,,,0.00,Acu-Link.com,2013-01-12 08:06:00,
2013-01-12 00:21:00,36.3,34.2,30.09,West,270,0.0,-999.0,92,-99.99,,,0.00,Acu-Link.com,2013-01-12 08:21:00,
2013-01-12 00:36:00,36.5,34.4,30.08,WSW,247,0.0,-999.0,92,-99.99,,,0.00,Acu-Link.com,2013-01-12 08:36:00,
2013-01-12 00:51:00,36.3,34.5,30.10,West,270,0.0,-999.0,93,-99.99,,,0.00,Acu-Link.com,2013-01-12 08:51:00,
2013-01-12 01:10:00,36.5,34.7,30.09,WNW,292,0.0,-999.0,93,-99.99,,,0.00,Acu-Link.com,2013-01-12 09:10:00,
2013-01-12 01:25:00,36.7,34.9,30.10,WNW,292,1.7,-999.0,93,-99.99,,,0.00,Acu-Link.com,2013-01-12 09:25:00,
2013-01-12 01:40:00,36.0,34.4,30.10,WNW,292,1.7,-999.0,94,-99.99,,,0.00,Acu-Link.com,2013-01-12 09:40:00,
2013-01-12 01:55:00,36.0,34.4,30.11,NNW,337,2.2,-999.0,94,-99.99,,,0.00,Acu-Link.com,2013-01-12 09:55:00,
2013-01-12 02:10:00,36.0,34.4,30.10,WNW,292,1.7,-999.0,94,-99.99,,,0.00,Acu-Link.com,2013-01-12 10:10:00,
2013-01-12 02:25:00,35.8,34.2,30.11,North,0,0.0,-999.0,94,-99.99,,,0.00,Acu-Link.com,2013-01-12 10:25:00,
2013-01-12 02:40:00,35.4,33.8,30.11,NNW,337,1.7,-999.0,94,-99.99,,,0.00,Acu-Link.com,2013-01-12 10:40:00,
2013-01-12 02:55:00,34.9,33.4,30.11,NW,315,1.7,-999.0,94,-99.99,,,0.00,Acu-Link.com,2013-01-12 10:55:00,
2013-01-12 03:11:00,34.5,33.0,30.12,West,270,0.0,-999.0,94,-99.99,,,0.00,Acu-Link.com,2013-01-12 11:11:00,
2013-01-12 03:26:00,34.5,33.0,30.12,NNW,337,0.0,-999.0,94,-99.99,,,0.00,Acu-Link.com,2013-01-12 11:26:00,
2013-01-12 03:41:00,34.0,32.5,30.12,NW,315,0.0,-999.0,94,-99.99,,,0.00,Acu-Link.com,2013-01-12 11:41:00,
2013-01-12 03:56:00,33.3,31.8,30.12,West,270,0.0,-999.0,94,-99.99,,,0.00,Acu-Link.com,2013-01-12 11:56:00,
2013-01-12 04:11:00,33.3,31.8,30.12,NNW,337,0.0,-999.0,94,-99.99,,,0.00,Acu-Link.com,2013-01-12 12:11:00,
2013-01-12 04:26:00,33.4,31.9,30.12,West,270,0.0,-999.0,94,-99.99,,,0.00,Acu-Link.com,2013-01-12 12:26:00,
2013-01-12 04:41:00,33.3,31.8,30.12,NNW,337,1.7,-999.0,94,-99.99,,,0.00,Acu-Link.com,2013-01-12 12:41:00,
2013-01-12 04:56:00,33.6,32.1,30.12,WNW,292,0.0,-999.0,94,-99.99,,,0.00,Acu-Link.com,2013-01-12 12:56:00,
2013-01-12 05:11:00,33.4,31.9,30.11,NW,315,0.0,-999.0,94,-99.99,,,0.00,Acu-Link.com,2013-01-12 13:11:00,
2013-01-12 05:27:00,33.6,32.1,30.12,NW,315,1.7,-999.0,94,-99.99,,,0.00,Acu-Link.com,2013-01-12 13:27:00,
2013-01-12 05:42:00,33.3,31.8,30.12,NNW,337,2.7,-999.0,94,-99.99,,,0.00,Acu-Link.com,2013-01-12 13:42:00,
2013-01-12 05:57:00,33.3,31.8,30.13,WNW,292,0.0,-999.0,94,-99.99,,,0.00,Acu-Link.com,2013-01-12 13:57:00,
2013-01-12 06:12:00,33.3,31.8,30.14,NNW,337,2.2,-999.0,94,-99.99,,,0.00,Acu-Link.com,2013-01-12 14:12:00,
2013-01-12 06:27:00,33.3,31.8,30.15,NW,315,1.1,-999.0,94,-99.99,,,0.00,Acu-Link.com,2013-01-12 14:27:00,
2013-01-12 06:42:00,33.3,31.8,30.15,NNW,337,0.0,-999.0,94,-99.99,,,0.00,Acu-Link.com,2013-01-12 14:42:00,
2013-01-12 06:57:00,32.7,31.2,30.16,NNW,337,1.7,-999.0,94,-99.99,,,0.00,Acu-Link.com,2013-01-12 14:57:00,
2013-01-12 07:12:00,32.9,31.4,30.16,NNW,337,0.0,-999.0,94,-99.99,,,0.00,Acu-Link.com,2013-01-12 15:12:00,
2013-01-12 07:27:00,32.7,31.2,30.17,NNW,337,1.7,-999.0,94,-99.99,,,0.00,Acu-Link.com,2013-01-12 15:27:00,
2013-01-12 07:43:00,32.7,31.2,30.17,North,0,0.0,-999.0,94,-99.99,,,0.00,Acu-Link.com,2013-01-12 15:43:00,
2013-01-12 07:58:00,34.0,32.7,30.18,West,270,0.0,-999.0,95,-99.99,,,0.00,Acu-Link.com,2013-01-12 15:58:00,
2013-01-12 08:13:00,35.4,33.6,30.18,SW,225,1.7,-999.0,93,-99.99,,,0.00,Acu-Link.com,2013-01-12 16:13:00,
2013-01-12 08:28:00,37.4,34.2,30.18,WSW,247,0.0,-999.0,88,-99.99,,,0.00,Acu-Link.com,2013-01-12 16:28:00,
2013-01-12 08:43:00,40.1,36.3,30.19,SSE,157,0.0,-999.0,86,-99.99,,,0.00,Acu-Link.com,2013-01-12 16:43:00,
2013-01-12 08:58:00,40.8,36.9,30.18,SW,225,1.7,-999.0,86,-99.99,,,0.00,Acu-Link.com,2013-01-12 16:58:00,
2013-01-12 09:13:00,44.2,38.4,30.19,ESE,112,2.7,-999.0,80,-99.99,,,0.00,Acu-Link.com,2013-01-12 17:13:00,
2013-01-12 09:28:00,44.8,36.3,30.19,ESE,112,3.7,-999.0,72,-99.99,,,0.00,Acu-Link.com,2013-01-12 17:28:00,
2013-01-12 09:43:00,46.4,35.7,30.18,ESE,112,1.7,-999.0,66,-99.99,,,0.00,Acu-Link.com,2013-01-12 17:43:00,
2013-01-12 09:59:00,46.0,35.3,30.18,SE,135,4.7,-999.0,66,-99.99,,,0.00,Acu-Link.com,2013-01-12 17:59:00,
2013-01-12 10:14:00,47.1,33.9,30.18,SSE,157,1.7,-999.0,60,-99.99,,,0.00,Acu-Link.com,2013-01-12 18:14:00,
2013-01-12 10:29:00,48.7,35.4,30.18,ESE,112,3.7,-999.0,60,-99.99,,,0.00,Acu-Link.com,2013-01-12 18:29:00,
2013-01-12 10:44:00,50.0,36.2,30.17,ESE,112,2.7,-999.0,59,-99.99,,,0.00,Acu-Link.com,2013-01-12 18:44:00,
2013-01-12 10:59:00,49.5,33.1,30.17,ESE,112,4.2,-999.0,53,-99.99,,,0.00,Acu-Link.com,2013-01-12 18:59:00,
2013-01-12 11:14:00,50.2,32.3,30.16,ESE,112,3.7,-999.0,50,-99.99,,,0.00,Acu-Link.com,2013-01-12 19:14:00,
2013-01-12 11:29:00,51.1,31.6,30.15,East,90,2.2,-999.0,47,-99.99,,,0.00,Acu-Link.com,2013-01-12 19:29:00,
2013-01-12 11:44:00,50.7,30.7,30.13,SE,135,5.3,-999.0,46,-99.99,,,0.00,Acu-Link.com,2013-01-12 19:44:00,
2013-01-12 11:59:00,51.3,30.1,30.12,ESE,112,6.3,-999.0,44,-99.99,,,0.00,Acu-Link.com,2013-01-12 19:59:00,
2013-01-12 12:15:00,52.2,28.6,30.12,ESE,112,5.3,-999.0,40,-99.99,,,0.00,Acu-Link.com,2013-01-12 20:15:00,
2013-01-12 12:30:00,52.7,28.4,30.11,SSE,157,2.7,-999.0,39,-99.99,,,0.00,Acu-Link.com,2013-01-12 20:30:00,
2013-01-12 12:45:00,52.7,26.5,30.09,ESE,112,3.7,-999.0,36,-99.99,,,0.00,Acu-Link.com,2013-01-12 20:45:00,
2013-01-12 13:00:00,52.7,23.7,30.10,East,90,3.2,-999.0,32,-99.99,,,0.00,Acu-Link.com,2013-01-12 21:00:00,
2013-01-12 13:15:00,52.9,23.9,30.09,SE,135,1.7,-999.0,32,-99.99,,,0.00,Acu-Link.com,2013-01-12 21:15:00,
2013-01-12 13:30:00,52.5,22.8,30.08,ESE,112,1.7,-999.0,31,-99.99,,,0.00,Acu-Link.com,2013-01-12 21:30:00,
2013-01-12 13:45:00,52.9,23.1,30.09,SSE,157,4.7,-999.0,31,-99.99,,,0.00,Acu-Link.com,2013-01-12 21:45:00,
2013-01-12 14:00:00,52.0,21.5,30.08,ENE,67,4.2,-999.0,30,-99.99,,,0.00,Acu-Link.com,2013-01-12 22:00:00,
2013-01-12 14:15:00,53.2,23.4,30.08,North,0,2.7,-999.0,31,-99.99,,,0.00,Acu-Link.com,2013-01-12 22:15:00,
2013-01-12 14:30:00,52.5,22.0,30.08,North,0,3.2,-999.0,30,-99.99,,,0.00,Acu-Link.com,2013-01-12 22:30:00,
2013-01-12 14:46:00,52.7,21.4,30.08,NW,315,1.7,-999.0,29,-99.99,,,0.00,Acu-Link.com,2013-01-12 22:46:00,
2013-01-12 15:01:00,54.3,24.3,30.07,NNE,22,1.7,-999.0,31,-99.99,,,0.00,Acu-Link.com,2013-01-12 23:01:00,
2013-01-12 15:16:00,53.1,23.3,30.07,ESE,112,2.2,-999.0,31,-99.99,,,0.00,Acu-Link.com,2013-01-12 23:16:00,
2013-01-12 15:31:00,52.5,22.8,30.06,ENE,67,1.1,-999.0,31,-99.99,,,0.00,Acu-Link.com,2013-01-12 23:31:00,
2013-01-12 15:46:00,52.5,25.0,30.06,SW,225,1.7,-999.0,34,-99.99,,,0.00,Acu-Link.com,2013-01-12 23:46:00,
2013-01-12 16:01:00,52.5,25.7,30.06,SSW,202,2.2,-999.0,35,-99.99,,,0.00,Acu-Link.com,2013-01-13 00:01:00,
2013-01-12 16:16:00,50.7,27.9,30.06,SW,225,0.0,-999.0,41,-99.99,,,0.00,Acu-Link.com,2013-01-13 00:16:00,
2013-01-12 16:31:00,48.0,29.3,30.06,SSW,202,1.7,-999.0,48,-99.99,,,0.00,Acu-Link.com,2013-01-13 00:31:00,
2013-01-12 16:46:00,48.9,30.6,30.06,SSE,157,1.7,-999.0,49,-99.99,,,0.00,Acu-Link.com,2013-01-13 00:46:00,
2013-01-12 17:02:00,45.3,31.0,30.07,SW,225,0.0,-999.0,57,-99.99,,,0.00,Acu-Link.com,2013-01-13 01:02:00,
2013-01-12 17:17:00,43.0,30.5,30.06,SSW,202,0.0,-999.0,61,-99.99,,,0.00,Acu-Link.com,2013-01-13 01:17:00,
2013-01-12 17:32:00,40.8,29.6,30.06,SW,225,1.7,-999.0,64,-99.99,,,0.00,Acu-Link.com,2013-01-13 01:32:00,
2013-01-12 17:47:00,39.4,29.4,30.07,WSW,247,1.7,-999.0,67,-99.99,,,0.00,Acu-Link.com,2013-01-13 01:47:00,
2013-01-12 18:02:00,39.0,30.1,30.07,SW,225,1.7,-999.0,70,-99.99,,,0.00,Acu-Link.com,2013-01-13 02:02:00,
2013-01-12 18:17:00,39.6,31.0,30.07,West,270,0.0,-999.0,71,-99.99,,,0.00,Acu-Link.com,2013-01-13 02:17:00,
2013-01-12 18:32:00,39.7,31.4,30.07,NW,315,0.0,-999.0,72,-99.99,,,0.00,Acu-Link.com,2013-01-13 02:32:00,
2013-01-12 18:47:00,40.5,32.5,30.08,SW,225,0.0,-999.0,73,-99.99,,,0.00,Acu-Link.com,2013-01-13 02:47:00,
2013-01-12 19:02:00,40.5,32.9,30.07,West,270,0.0,-999.0,74,-99.99,,,0.00,Acu-Link.com,2013-01-13 03:02:00,
2013-01-12 19:18:00,40.6,33.0,30.06,NNW,337,0.0,-999.0,74,-99.99,,,0.00,Acu-Link.com,2013-01-13 03:18:00,
2013-01-12 19:33:00,40.6,33.0,30.07,NNW,337,0.0,-999.0,74,-99.99,,,0.00,Acu-Link.com,2013-01-13 03:33:00,
2013-01-12 19:48:00,40.8,33.5,30.06,WSW,247,0.0,-999.0,75,-99.99,,,0.00,Acu-Link.com,2013-01-13 03:48:00,
2013-01-12 20:03:00,40.6,33.6,30.08,SW,225,0.0,-999.0,76,-99.99,,,0.00,Acu-Link.com,2013-01-13 04:03:00,
2013-01-12 20:18:00,40.3,33.3,30.07,NNW,337,0.0,-999.0,76,-99.99,,,0.00,Acu-Link.com,2013-01-13 04:18:00,
2013-01-12 20:33:00,39.9,33.0,30.07,WSW,247,0.0,-999.0,76,-99.99,,,0.00,Acu-Link.com,2013-01-13 04:33:00,
2013-01-12 20:48:00,38.7,32.1,30.07,NW,315,1.1,-999.0,77,-99.99,,,0.00,Acu-Link.com,2013-01-13 04:48:00,
2013-01-12 21:03:00,37.2,31.0,30.07,West,270,0.0,-999.0,78,-99.99,,,0.00,Acu-Link.com,2013-01-13 05:03:00,
2013-01-12 21:18:00,36.5,30.6,30.06,WNW,292,0.0,-999.0,79,-99.99,,,0.00,Acu-Link.com,2013-01-13 05:18:00,
2013-01-12 21:34:00,35.4,30.2,30.07,West,270,2.2,-999.0,81,-99.99,,,0.00,Acu-Link.com,2013-01-13 05:34:00,
2013-01-12 21:49:00,35.1,29.9,30.07,NW,315,2.2,-999.0,81,-99.99,,,0.00,Acu-Link.com,2013-01-13 05:49:00,
2013-01-12 22:04:00,34.7,29.5,30.07,WNW,292,0.0,-999.0,81,-99.99,,,0.00,Acu-Link.com,2013-01-13 06:04:00,
2013-01-12 22:19:00,34.0,29.1,30.08,WSW,247,0.0,-999.0,82,-99.99,,,0.00,Acu-Link.com,2013-01-13 06:19:00,
2013-01-12 22:34:00,33.4,28.8,30.08,WNW,292,1.7,-999.0,83,-99.99,,,0.00,Acu-Link.com,2013-01-13 06:34:00,
2013-01-12 22:49:00,33.1,28.5,30.09,West,270,0.0,-999.0,83,-99.99,,,0.00,Acu-Link.com,2013-01-13 06:49:00,
2013-01-12 23:04:00,32.4,27.8,30.09,SW,225,0.0,-999.0,83,-99.99,,,0.00,Acu-Link.com,2013-01-13 07:04:00,
2013-01-12 23:19:00,32.4,28.1,30.10,West,270,0.0,-999.0,84,-99.99,,,0.00,Acu-Link.com,2013-01-13 07:19:00,
2013-01-12 23:34:00,32.4,28.1,30.11,NNW,337,0.0,-999.0,84,-99.99,,,0.00,Acu-Link.com,2013-01-13 07:34:00,
2013-01-12 23:50:00,32.2,28.2,30.11,West,270,0.0,-999.0,85,-99.99,,,0.00,Acu-Link.com,2013-01-13 07:50:00,